Regional Weather Roundup
Issued by NWS

Home | Current Version | Previous Version | Text Only | Print | Product List | Glossary On
Versions: 1 2 3 4 5 6 7 8 9 10 11 12 13 14 15 16 17 18 19 20 21 22 23 24 25 26 27 28 29 30 31 32 33 34 35 36 37 38 39 40 41 42 43 44 45 46 47 48 49 50
000
ASUS42 KTBW 230410
RWRFL
FLORIDA REGIONAL WEATHER ROUNDUP
NATIONAL WEATHER SERVICE TAMPA BAY RUSKIN FL
1200 AM EDT TUE SEP 23 2014

NOTE: "FAIR" INDICATES FEW OR NO CLOUDS BELOW 12,000 FEET WITH NO
SIGNIFICANT WEATHER AND/OR OBSTRUCTIONS TO VISIBILITY.


FLZ001>010-012>015-112-114-115-230500-
PANHANDLE FLORIDA

CITY           SKY/WX    TMP DP  RH WIND       PRES   REMARKS
PENSACOLA      CLEAR     70  67  90 NE3       30.04R
PENSACOLA NAS  CLEAR     72  65  78 N6        30.03S
MILTON NAS     CLEAR     64  60  87 N3        30.05R
CRESTVIEW      CLEAR     64  63  96 CALM      30.06S FOG
DUKE FIELD     CLEAR     65  65 100 N6        30.04S
VALPARAISO     CLEAR     69  66  92 N3        30.04R
MARY ESTHER    CLEAR     68  64  84 NE6       30.03R
TRI COUNTY     FAIR      64  64 100 MISG      30.05R
PANAMA CITY    FAIR      68  65  90 N3        30.02S
TYNDALL AFB    MOCLDY    71  66  83 NE6       30.02S
APALACHICOLA   PTCLDY    73  67  81 N10       30.00S

STATION/POSITION SKY/WX   TEMP    WIND        PRES    WAVE   SWELL
                          AIR SEA DIR/SP/G            HT/PER HT/PER
                          (F)     (DEG/KT/KT) (MB)    (FT/S) (FT/S)
30.1N   87.6W              81 85   50/ 17/ 21 1016.5F   3/ 4
29.2N   88.2W              81 84   50/ 21/ 25 1016.1F   2/ 3
28.8N   86.0W              81 84   60/  8/ 10 1015.0F   2/ 6   2/ 6
PANAMA CITY BEAC           72 85   30/  7/ 11 1016.5F
CAPE SAN BLAS    NOT AVBL
TOWER C                    78      40/ 19/ 20 1015.2S
28.5N   84.5W              80 84  210/  4/  6 1014.6F   2/ 6   2/ 6

$$
FLZ011-016>038-118-127-128-134-139-239-230500-
NORTH FLORIDA

CITY           SKY/WX    TMP DP  RH WIND       PRES   REMARKS
MARIANNA       PTCLDY    67  67 100 SE5       30.04R
TALLAHASSEE    CLEAR     74  65  73 NE7G17    30.02R
PERRY          MOCLDY    72  66  83 NE3       30.00F
CROSS CITY       N/A     73  70  90 CALM      29.99S
LAKE CITY      CLOUDY    70  70 100 CALM      30.02F
GAINESVILLE    CLOUDY    71  70  96 NE3       30.00F
MAYPORT NAS    LGT RAIN  76  71  85 SE10      30.03S
JACKSONVILLE   CLOUDY    73  70  90 N6        30.03S
JAX NAS        HVY RAIN  76  71  85 CALM      30.03S
JAX CRAIG      LGT RAIN  75  71  87 S7        30.03S
JAX CECIL      CLOUDY    72  72 100 N6        30.04S
ST AUGUSTINE   CLOUDY    74  72  93 S3        30.02F

STATION/POSITION SKY/WX   TEMP    WIND        PRES    WAVE   SWELL
                          AIR SEA DIR/SP/G            HT/PER HT/PER
                          (F)     (DEG/KT/KT) (MB)    (FT/S) (FT/S)
SHELL POINT                75      20/  5/ 10   N/A
KEATON BEACH               73      60/  5/  8 1015.9F
CEDAR KEY                  72     100/ 10/ 11 1016.8R
FERNANDINA                 77 82  200/  5/  6 1016.6R
30.7N   81.3W                 83                N/A     4/ 4
MAYPORT                    76 83  160/  7/ 12   N/A
31.4N   80.9W              78 82   30/ 25/ 29 1016.0F   4/ 5   2/ 8
ST AUGUSTINE               75     200/  5/  5 1017.0F

$$
FLZ040-043>046-052-053-057-058-063-144-230500-
INTERIOR CENTRAL FLORIDA

CITY           SKY/WX    TMP DP  RH WIND       PRES   REMARKS
OCALA          CLOUDY    72  70  94 CALM      29.99F
THE VILLAGES     N/A     73  73 100 CALM      29.90F
LEESBURG       CLOUDY    74  70  87 CALM      30.00F
SANFORD        CLOUDY    72  70  93 SE7       30.00F
ORLANDO EXEC   LGT RAIN  73  71  93 SE9       30.00S
ORLANDO INTL   LGT RAIN  73  72  96 E7        30.00S
WINTER HAVEN   CLOUDY    73  72  96 SE7       30.02R
LAKELAND       CLOUDY   N/A N/A N/A CALM      30.02R
BARTOW         FAIR      72 N/A N/A CALM      30.02R
OKEECHOBEE       N/A     70  70 100 MISG        N/A

$$
FLZ041-047-054-059-064-141-147-230500-
EAST CENTRAL FLORIDA

CITY           SKY/WX    TMP DP  RH WIND       PRES   REMARKS
DAYTONA BEACH  CLOUDY    72  70  93 CALM      30.00F
DELAND         CLOUDY    72  70  94 SE3       30.01F
JFK SPACE CTR  CLOUDY    71  70  95 SE3       30.00F
CAPE CANAVERAL CLOUDY    71  69  96 E3        29.99F
PATRICK AFB    CLOUDY    74  72  93 E2        30.00F
MELBOURNE      CLOUDY    73  70  90 SE5       30.00F
VERO BEACH     PTCLDY    69  69 100 CALM      30.01F
FT PIERCE      PTCLDY    71  69  93 CALM      30.01F
STUART         PTCLDY    72  70  94 CALM      30.02F

STATION/POSITION SKY/WX   TEMP    WIND        PRES    WAVE   SWELL
                          AIR SEA DIR/SP/G            HT/PER HT/PER
                          (F)     (DEG/KT/KT) (MB)    (FT/S) (FT/S)
28.5N   80.2W              77 84  190/  4/  6 1016.7F
28.9N   78.5W              78 84  320/ 14/ 17 1017.2R   3/ 8   2/ 8
TRIDENT PIER               71 84   30/  2/  2 1015.4F
28.4N   80.5W                 83                N/A     1/ 8
27.6N   80.2W                 83                N/A     2/ 8

$$
FLZ050-056-061-142-242-148-248-149-249-151-251-155-255-
160-260-230500-
WEST CENTRAL FLORIDA

CITY           SKY/WX    TMP DP  RH WIND       PRES   REMARKS
CRYSTAL RIVER  MOCLDY    72  72 100 CALM      30.00S
INVERNESS      FAIR      72  68  88 CALM      30.01S
BROOKSVILLE    CLOUDY    73  71  93 CALM      30.01S
ZEPHYRHILLS    FAIR      64  64 100 CALM      30.02R
CLEARWATER     CLOUDY    75  73  93 CALM      30.00R
TAMPA INTL     CLOUDY    74  71  91 E3        30.01R
TAMPA EXEC     CLOUDY    73  70  88 CALM      30.02R FOG
PLANT CITY     CLOUDY    73 N/A N/A CALM      30.03R
MACDILL AFB    CLOUDY    74  74 100 E3        30.01R
ST PETERSBURG  CLOUDY    75  71  87 S8        29.99R
SARASOTA       CLOUDY    72  71  97 E3        29.99R
VENICE           N/A    N/A N/A N/A MISG        N/A

STATION/POSITION SKY/WX   TEMP    WIND        PRES    WAVE   SWELL
                          AIR SEA DIR/SP/G            HT/PER HT/PER
                          (F)     (DEG/KT/KT) (MB)    (FT/S) (FT/S)
CEDAR KEY                  72     100/ 10/ 11 1016.8R
28.5N   84.5W              80 84  210/  4/  6 1014.6F   2/ 6   2/ 6
27.3N   84.3W                 84                N/A     2/ 5
CLEARWATER BEACH NOT AVBL
MIDDLE TAMPA BAY           74     150/ 10/ 11 1015.6F
VENICE                     73 84  130/  5/  6 1015.6R

$$
FLZ066-069-070-075>078-162-262-165-265-230500-
SOUTHWEST FLORIDA AND KEYS

CITY           SKY/WX    TMP DP  RH WIND       PRES   REMARKS
PUNTA GORDA    MOCLDY    72  71  97 E3        30.02F
FT MYERS       MOCLDY    73  72  96 CALM      30.00S
SOUTHWEST INTL MOCLDY    73  71  93 CALM      30.00F
NAPLES         MOCLDY    75  72  90 E6        29.99F
MARCO ISLAND   CLOUDY    73  72  94 CALM      30.00R
MARATHON       MOCLDY    83  78  85 NE7       30.00R
KEY WEST NAS   CLEAR     82  75  79 NE5       30.00R
KEY WEST INTL  CLEAR     82  75  79 N5        30.00R

STATION/POSITION SKY/WX   TEMP    WIND        PRES    WAVE   SWELL
                          AIR SEA DIR/SP/G            HT/PER HT/PER
                          (F)     (DEG/KT/KT) (MB)    (FT/S) (FT/S)
VENICE                     73 84  130/  5/  6 1015.6R
NAPLES                     75 88   80/  5/  7 1016.4S
DRY TORTUGAS               80      20/  7/  8 1016.3R
NW FL BAY                  82      30/  6/  7 1015.7F
SAND KEY                   83      50/  5/  7 1015.6R
SOMBRERO KEY               83      40/  9/ 11 1016.3R
LONG KEY                   82 85   60/  7/  8 1016.0F
MOLASSES REEF              83 85   10/  6/  7 1015.6R

$$
FLZ067-068-071>074-168-172>174-230500-
SOUTHEAST FLORIDA

CITY           SKY/WX    TMP DP  RH WIND       PRES   REMARKS
W PALM BEACH   MOCLDY    75  73  93 CALM      30.00S
FT LAUDER-EXEC PTCLDY    75  75 100 NW3       30.00F
FT LAUDERDALE  PTCLDY    77  74  90 N3        30.00S
POMPANO BEACH  PTCLDY    77  74  90 E3        30.01R
PEMBROKE PINES PTCLDY    76  75  97 N6        30.02S
OPA LOCKA      TSTM      77  74  90 N5        30.01S
MIAMI          CLOUDY    78  75  90 N6        30.01S THUNDER
WEST KENDALL   CLEAR     78  74  87 N3        30.00S
HOMESTEAD      LGT RAIN  77  73  88 NE16      30.01R

STATION/POSITION SKY/WX   TEMP    WIND        PRES    WAVE   SWELL
                          AIR SEA DIR/SP/G            HT/PER HT/PER
                          (F)     (DEG/KT/KT) (MB)    (FT/S) (FT/S)
PORT EVERGLADES            77     320/  4/  6 1016.1
VIRGINIA KEY               75 85  160/ 10/ 14   N/A
LAKE WORTH                 78 85   20/ 11/ 12 1015.8R
FOWEY ROCKS                78 85   90/ 10/ 11 1015.9R
SETTLEMENT POINT           82     140/  6/  7 1016.1F

$$



USA.gov is the U.S. government's official web portal to all federal, state and local government web resources and services.